Regional Weather Roundup
Issued by NWS

Home | Current Version | Previous Version | Graphics & Text | Print | Product List | Glossary On
Versions: 1 2 3 4 5 6 7 8 9 10 11 12 13 14 15 16 17 18 19 20 21 22 23 24 25 26 27 28 29 30 31 32 33 34 35 36 37 38 39 40 41 42 43 44 45 46 47 48 49 50
232
ASUS43 KLOT 302304
RWRIL

ILLINOIS REGIONAL WEATHER ROUNDUP
NATIONAL WEATHER SERVICE CHICAGO/ROMEOVILLE IL
600 PM CDT TUE AUG 30 2016

NOTE: "FAIR" INDICATES FEW OR NO CLOUDS BELOW 12,000 FEET WITH NO
SIGNIFICANT WEATHER AND/OR OBSTRUCTIONS TO VISIBILITY.

* THESE STATIONS ARE NOT UNDER NWS QUALITY CONTROL. THEY ALSO MAY NOT
  REPORT WEATHER SUCH AS PRECIPITATION OR FOG.

ILZ001-002-007-009-015-016-024-310000-
NORTHWEST ILLINOIS

CITY           SKY/WX    TMP DP  RH WIND       PRES   REMARKS
MOLINE         MOSUNNY   84  71  65 W6        30.06S HX  89
STERLING*      PTSUNNY   78  71  79 NE8       30.07S HX  80
SAVANNA*       CLOUDY    77  72  84 CALM      30.08R
$$

ILZ003-004-008-010-011-017-018-310000-
NORTH CENTRAL ILLINOIS

CITY           SKY/WX    TMP DP  RH WIND       PRES   REMARKS
ROCKFORD       CLOUDY    74  68  81 CALM      30.08F
FREEPORT*      CLOUDY    73  68  84 N3        30.10F
ROCHELLE*      RAIN      72  70  93 CALM      30.08F
$$

ILZ005-006-012>014-019>023-310000-
NORTHEAST ILLINOIS

CITY           SKY/WX    TMP DP  RH WIND       PRES   REMARKS
CHICAGO-OHARE  CLOUDY    77  67  71 N8        30.06S
CHICAGO-MIDWAY PTSUNNY   80  67  64 N12       30.05S HX  82
AURORA         CLOUDY    76  69  79 N12       30.06S
LANSING*       MOSUNNY   81  72  75 W6        30.04F HX  85
JOLIET*        CLOUDY    83  72  69 CALM      30.06S HX  88
WAUKEGAN       CLOUDY    73  68  84 VRB3      30.05F
DUPAGE AIRPORT PTSUNNY   78  69  73 N9        30.06S HX  80
KANKAKEE*      PTSUNNY   80  72  75 W5        30.06F HX  84
WHEELING       CLOUDY    77  67  71 CALM      30.06F
MORRIS*        CLOUDY    82  71  71 NW3       30.04F HX  86
ROMEOVILLE*    CLOUDY    81  73  77 NW3       30.06F HX  85
NORTHERLY ISL    N/A     75  67  76 N12         N/A
$$

LMZ740>746-310000-
SOUTHERN LAKE MICHIGAN

STATION/POSITION SKY/WX   TEMP    WIND        PRES    VSBY  WAVE
                          AIR SEA DIR/SP/G                  HT/PER
                          (F)     (DEG/KT/KT) (MB)    (MI)  (FT/S)
SOUTHERN BUOY              75 76  250/ 10/ 12 1017.0          1/ 3
WILMETTE HARBOR            71 72  350/  8/ 12   N/A           1/ 3
HARRISON CRIB              80     100/  2/  4   N/A
BURNHAM HARBOR             74     340/  8/ 18   N/A
CALUMET HARBOR             83     260/  4/  8 1017.0F
BURNS HARBOR               80      50/  5/  6 1017.6F
MICHIGAN CITY              78     270/  2/  2   N/A
MICHIGAN CITY 6N           79 73   CALM  /  2   N/A           0
ST. JOSEPH                 76 76  310/  4/  4 1017.2F         1
$$

ILZ025>027-034>036-040-047-049-050-058-095>099-310000-
WEST-CENTRAL ILLINOIS

CITY           SKY/WX    TMP DP  RH WIND       PRES   REMARKS
QUINCY         CLOUDY    79  72  79 SW3       30.09S HX  82
GALESBURG*     SUNNY     80  72  75 W3        30.08S HX  84
MACOMB*        CLOUDY    78  75  88 SW6       30.10S HX  81
JACKSONVILLE*  CLOUDY    77  73  87 SW3       30.08S
PITTSFIELD*    CLOUDY    77  73  88 CALM      30.10F
$$

ILZ028>032-037-038-041>044-048-051>054-059>061-310000-
CENTRAL ILLINOIS

CITY           SKY/WX    TMP DP  RH WIND       PRES   REMARKS
PONTIAC        PTSUNNY   80  75  86 NW9       30.07F HX  85
BLOOMINGTON    PTSUNNY   78  72  81 W7        30.08F HX  80
DECATUR        CLOUDY    80  68  66 NW9       30.07F HX  83
PEORIA         CLOUDY    81  74  79 NW5       30.07S HX  86
LACON*         PTSUNNY   77  71  83 CALM      30.05F
LINCOLN*       CLOUDY    79  71  76 CALM      30.07S HX  82
SPRINGFIELD    CLOUDY    79  74  84 W5        30.07F HX  82
TAYLORVILLE    CLOUDY    77  74  88 CALM      30.07S
$$

ILZ033-039-045-046-055>057-062-063-310000-
EAST-CENTRAL ILLINOIS

CITY           SKY/WX    TMP DP  RH WIND       PRES   REMARKS
CHAMPAIGN      CLOUDY    78  72  81 W8        30.07F HX  80
RANTOUL*       MOSUNNY   81  74  81 W6        30.06F HX  86
MATTOON        CLOUDY    81  73  76 NW12      30.05S HX  86
PARIS*         MOSUNNY   83  76  78 NW3       30.05S HX  91
$$

ILZ079-100>102-310000-
SOUTHWEST ILLINOIS

CITY           SKY/WX    TMP DP  RH WIND       PRES   REMARKS
BELLEVILLE     MOSUNNY   77  72  84 NW5       30.05F
CAHOKIA*       RAIN      74  70  87 S3        30.06F FOG
SPARTA*        CLOUDY    78  71  79 W6        30.09R HX  80
$$

ILZ064>066-069>071-074>076-080>082-084>086-088>090-092>094-310000-
SOUTH-CENTRAL ILLINOIS

CITY           SKY/WX    TMP DP  RH WIND       PRES   REMARKS
CARBONDALE     SUNNY     89  72  56 N5        30.03F HX  96
EFFINGHAM*     MOSUNNY   82  75  79 NW9       30.06S HX  88
MT. VERNON     PTSUNNY   88  72  58 NW3       30.04S HX  94
CENTRALIA*     CLOUDY    82  75  78 NW7       30.04F HX  88
SALEM*         CLOUDY    80  73  79 NW6       30.06S HX  83
METROPOLIS*    SUNNY     91  72  53 N3        30.02F HX  98
$$

ILZ067-068-072-073-078-083-087-091-310000-
SOUTHEAST ILLINOIS

CITY           SKY/WX    TMP DP  RH WIND       PRES   REMARKS
LAWRENCEVILLE  MOSUNNY   88  71  57 W5        30.02F HX  94
FLORA*         SUNNY     88  74  62 SW5       30.03F HX  96
FAIRFIELD*     SUNNY     86  74  67 CALM      30.01F HX  94
HARRISBURG*    SUNNY     90  73  58 CALM      30.02F HX  98
ROBINSON*      PTSUNNY   82  77  82 W3        30.03F HX  90
CARMI*         PTSUNNY   89  75  64 CALM      30.01F HX  98
$$

ABBREVIATIONS USED IN REMARKS
   TC - TEMPERATURE IN CELSIUS
  WCI - WIND CHILL INDEX
   HX - HEAT INDEX
  VSB - VISIBILITY
$$





USA.gov is the U.S. government's official web portal to all federal, state and local government web resources and services.